Terug naar catalogus

STARLINK-2657

ActiefCommunicatieVLEO
NORAD 48655·PAYLOAD·🇺🇸 United States

Gelanceerd May 26, 2021 vanaf Cape Canaveral Space Force Station

Loading…

Volgende Passages (komende 24 uur)

TLE

VersSource: CelesTrak SupGP

Epoch: Sep 14, 2026, 20:41 UTC

1 48655C 21044T   26257.86229167 -.00025837  00000+0 -83078-3 0  2574
2 48655  53.1604 313.6288 0001292  79.9927 144.0234 15.31717024    17

Volg STARLINK-2657 in realtime met AllMySat

Download on the App Store